Location: Austin
(30.3000°N, 97.7500°W)
Time: 23:46:22
(UTC-05:00)

Cosmos 2058 - Pass Details

Date: 06 May 2026
Orbit: 523 x 538 km, 82.5° (Epoch: 13 May)

Event Time Altitude Azimuth Distance (km) Brightness Sun altitude
Rises 21:59:26 0° 341° (NNW) 2,654 7.2 -21.3°
Reaches altitude 10° 22:01:45 10° 330° (NNW) 1,762 6.3 -21.7°
Maximum altitude 22:05:08 30° 269° (W) 961 4.5 -22.2°
Enters shadow 22:07:31 16° 216° (SW) 1,411 4.9 -22.7°
